Moron de la Frontera, Spain

5:28 PM CEST on September 24, 2017 (GMT +0200)
Moron Air Base

Weather History for LEMO - May, 2014

Change the Weather History Date:

Sunday, May 11, 2014

  Actual Average Record
Temperature  
Mean Temperature 77 °F -  
Max Temperature 93 °F 81 °F 100 °F (2012)
Min Temperature 61 °F 57 °F 48 °F (2001)
Cooling Degree Days 12    
Growing Degree Days 27 (Base 50)    
Moisture  
Dew Point 55 °F    
Average Humidity 47    
Maximum Humidity 82    
Minimum Humidity 18    
Precipitation  
Precipitation 0.00 in - - ()
Sea Level Pressure  
Sea Level Pressure 29.99 in    
Wind  
Wind Speed 3 mph ()    
Max Wind Speed 7 mph    
Max Gust Speed -    
Visibility 14.0 miles    
Events      
Averages and records for this station are not official NWS values.
T = Trace of Precipitation, MM = Missing Value Source: Averaged Metar Reports

Daily Weather History Graph

Daily Weather History Graph

Search for Another Location

Airport or City:

Trip Planner

Search our weather history database for the weather conditions in past years. The results will help you decide how hot, cold, wet, or windy it might be!

Date:

Astronomy

May. 11, 2014 Rise Set
Actual Time 7:17 AM CEST 9:20 PM CEST
Civil Twilight 6:49 AM CEST 9:49 PM CEST
Nautical Twilight 6:14 AM CEST 10:24 PM CEST
Astronomical Twilight 5:36 AM CEST 11:02 PM CEST
Moon 6:06 PM CEST (5/11) 5:10 AM CEST (5/11)
Length of Visible Light 15h 00m
Length of Day
14h 02m
Waxing Gibbous, 87% of the Moon is Illuminated
May 11
Waxing Gibbous
May 14
Full
May 21
Last Quarter
May 28
New
Jun 5
First Quarter

Hourly Weather History & Observations

Time (CEST) Temp. Heat Index Dew Point Humidity Pressure Visibility Wind Dir Wind Speed Gust Speed Precip Events Conditions
12:00 AM 71.6 °F - 55.4 °F 57% 30.06 in - SSW 6.9 mph - N/A   Clear
1:00 AM 69.8 °F - 55.4 °F 60% 30.04 in - SSW 6.9 mph - N/A   Clear
2:00 AM 68.0 °F - 57.2 °F 68% 30.04 in - South 4.6 mph - N/A   Clear
3:00 AM 68.0 °F - 57.2 °F 68% 30.04 in - SSW 3.5 mph - N/A   Clear
4:00 AM 66.2 °F - 57.2 °F 73% 30.01 in - South 1.2 mph - N/A   Clear
5:00 AM 64.4 °F - 57.2 °F 77% 30.01 in - Calm Calm - N/A   Clear
6:00 AM 64.4 °F - 57.2 °F 77% 30.01 in - Variable 1.2 mph - N/A   Clear
7:00 AM 62.6 °F - 57.2 °F 82% 30.01 in - SE 1.2 mph - N/A   Clear
8:00 AM 64 °F - 59 °F 78% 30.03 in 9 mi East 1.2 mph - -   Clear
8:00 AM 64.4 °F - 57.2 °F 77% 30.01 in - East 2.3 mph - N/A   Clear
9:00 AM 69.8 °F - 59.0 °F 68% 30.04 in - Calm Calm - N/A   Clear
10:00 AM 75.2 °F - 59.0 °F 57% 30.04 in - Variable 2.3 mph - N/A   Clear
11:00 AM 78 °F - 61 °F 46% 30.02 in 12 mi NNE 2.3 mph - -   Clear
11:00 AM 80.6 °F 81.1 °F 59.0 °F 48% 30.01 in - NNE 3.5 mph - N/A   Clear
12:00 PM 82.4 °F 82.5 °F 59.0 °F 45% 30.01 in - NNE 3.5 mph - N/A   Clear
1:00 PM 86.0 °F 85.4 °F 59.0 °F 40% 30.01 in - North 3.5 mph - N/A   Clear
2:00 PM 86 °F - 59 °F 30% 29.99 in 16 mi North 3.5 mph - -   Scattered Clouds
2:00 PM 89.6 °F 87.3 °F 53.6 °F 29% 29.98 in - Variable 1.2 mph - N/A   Clear
3:00 PM 91.4 °F - 51.8 °F 26% 29.98 in - Variable 2.3 mph - N/A   Clear
4:00 PM 91.4 °F - 44.6 °F 20% 29.95 in - Variable 2.3 mph - N/A   Clear
5:00 PM 92 °F - 54 °F 18% 29.93 in 19 mi NNW 2.3 mph - -   Scattered Clouds
5:00 PM 93.2 °F - 44.6 °F 19% 29.95 in - Variable 3.5 mph - N/A   Clear
6:00 PM 93.2 °F - 44.6 °F 19% 29.92 in - WNW 5.8 mph - N/A   Clear
7:00 PM 93.2 °F - 46.4 °F 20% 29.92 in - Variable 2.3 mph - N/A   Clear
8:00 PM 90 °F - 54 °F 20% 29.90 in 22 mi SW 2.3 mph - -  
8:00 PM 93.2 °F - 51.8 °F 24% 29.92 in - Calm Calm - N/A   Clear
9:00 PM 87.8 °F - 51.8 °F 29% 29.92 in - SW 4.6 mph - N/A   Clear
10:00 PM 77.0 °F - 53.6 °F 44% 29.95 in - WSW 5.8 mph - N/A   Clear
11:00 PM 71.6 °F - 55.4 °F 57% 29.95 in - South 4.6 mph - N/A   Clear